DW7857 Weather Reports


Display with metric or nautical units.
time (UTC)temp
F
wind
direction
speed
MPH
gust
MPH
rain 1hr
in
rain 24hr
in
rain mn
in
humidity
%
barometer
mb
20170529190015 62 1 2.0 3.0 0.00 0.37 0.17 87 1000.5
20170529185016 62 199 3.0 4.0 0.00 0.37 0.17 86 1000.6
20170529184015 62 179 3.0 4.0 0.00 0.37 0.17 85 1000.5
20170529183015 63 229 3.0 4.0 0.00 0.37 0.17 84 1000.6
20170529182016 63 207 4.0 7.0 0.00 0.37 0.17 84 1000.5
20170529181015 63 199 5.0 6.0 0.00 0.37 0.17 83 1000.4
20170529180015 64 204 6.0 8.0 0.00 0.37 0.17 80 1000.4
20170529175015 64 177 5.0 7.0 0.00 0.37 0.17 80 1000.2
20170529174015 65 170 6.0 9.0 0.00 0.37 0.17 79 1000.1
20170529173015 65 135 4.0 9.0 0.00 0.37 0.17 81 1000.5
20170529172016 64 142 4.0 6.0 0.00 0.37 0.17 82 1000.2
20170529171015 64 181 6.0 9.0 0.00 0.37 0.17 80 1000.2
20170529170015 65 172 4.0 6.0 0.00 0.37 0.17 80 1000.2
20170529165015 65 204 4.0 6.0 0.00 0.37 0.17 82 1000.3
20170529164015 64 193 5.0 7.0 0.00 0.37 0.17 85 1000.3
20170529163015 63 199 6.0 9.0 0.00 0.37 0.17 89 1000.4
20170529162015 63 179 6.0 10.0 0.00 0.37 0.17 88 1000.3
20170529161015 63 179 7.0 9.0 0.00 0.37 0.17 86 1000.3
20170529160015 64 203 7.0 8.0 0.00 0.37 0.17 81 1000.3
20170529155016 65 185 4.0 5.0 0.00 0.37 0.17 81 1000.4
20170529154015 65 220 4.0 8.0 0.00 0.37 0.17 81 1000.2
20170529153014 65 174 5.0 8.0 0.00 0.37 0.17 81 1000.2
20170529152015 65 173 7.0 9.0 0.00 0.39 0.17 79 1000.0
20170529151014 67 196 5.0 7.0 0.00 0.39 0.17 78 1000.3
20170529150015 66 159 4.0 6.0 0.00 0.39 0.17 82 1000.3
20170529145015 65 181 6.0 8.0 0.00 0.39 0.17 81 1000.3
20170529144015 65 171 5.0 8.0 0.00 0.39 0.17 82 1000.2
20170529143015 65 210 5.0 9.0 0.00 0.39 0.17 81 1000.0
20170529142015 65 208 7.0 9.0 0.00 0.39 0.17 80 1000.3
20170529141014 66 194 6.0 8.0 0.00 0.39 0.17 80 1000.2
20170529140014 65 168 6.0 7.0 0.00 0.39 0.17 80 1000.2
20170529135014 66 199 5.0 7.0 0.00 0.39 0.17 81 1000.3
20170529134015 65 162 5.0 8.0 0.00 0.39 0.17 80 1000.4
20170529133014 65 148 6.0 7.0 0.00 0.39 0.17 79 1000.5
20170529132014 66 129 4.0 7.0 0.00 0.39 0.17 80 1000.3
20170529131014 66 173 4.0 7.0 0.00 0.39 0.17 83 1000.3
20170529130015 65 184 5.0 7.0 0.00 0.39 0.17 86 1000.3
20170529125014 64 171 4.0 7.0 0.00 0.39 0.17 87 1000.4
20170529124014 63 174 6.0 8.0 0.00 0.39 0.17 90 1000.6
20170529123014 63 181 3.0 5.0 0.00 0.39 0.17 91 1000.6
20170529122014 63 152 3.0 5.0 0.01 0.39 0.17 92 1000.5
20170529121014 63 177 3.0 5.0 0.02 0.39 0.17 92 1000.5
20170529120014 63 169 3.0 4.0 0.05 0.39 0.17 93 1000.5
20170529115014 63 182 3.0 4.0 0.07 0.39 0.17 92 1000.4
20170529114015 63 193 4.0 8.0 0.07 0.39 0.17 93 1000.3
20170529113015 63 125 3.0 4.0 0.11 0.39 0.17 94 1000.5
20170529112014 62 176 4.0 4.0 0.12 0.38 0.15 94 1000.5
20170529111014 62 169 3.0 4.0 0.11 0.37 0.14 93 1000.6
20170529110014 62 163 3.0 6.0 0.08 0.34 0.12 93 1000.5
20170529105014 63 190 1.0 4.0 0.06 0.32 0.09 92 1000.6
20170529104014 63 90 0.0 1.0 0.06 0.32 0.09 92 1000.6
20170529103014 63 158 1.0 4.0 0.02 0.28 0.06 90 1000.3
20170529102014 63 172 3.0 4.0 0.00 0.26 0.04 90 1000.2
20170529101014 64 174 2.0 4.0 0.00 0.26 0.04 86 1000.1
20170529100015 64 61 1.0 3.0 0.00 0.26 0.04 89 1000.3
20170529095014 63 94 2.0 3.0 0.00 0.26 0.04 91 1000.2
20170529094014 63 144 1.0 2.0 0.00 0.26 0.04 91 1000.2
20170529093014 63 93 2.0 3.0 0.00 0.26 0.04 90 1000.0
20170529092014 63 118 1.0 3.0 0.00 0.26 0.04 91 1000.0
20170529091014 63 169 0.0 2.0 0.00 0.26 0.04 90 1000.0
20170529090014 63 156 2.0 4.0 0.00 0.26 0.04 91 1000.2
20170529085014 63 155 3.0 4.0 0.00 0.26 0.04 89 1000.3
20170529084014 64 160 3.0 4.0 0.00 0.26 0.04 87 1000.3
20170529083015 64 126 3.0 4.0 0.00 0.26 0.04 87 1000.2
20170529082014 64 87 2.0 4.0 0.00 0.26 0.04 90 1000.2
20170529081014 64 185 2.0 2.0 0.00 0.26 0.04 91 1000.3
20170529080014 63 238 2.0 4.0 0.00 0.26 0.04 94 1000.2
20170529075014 63 202 1.0 2.0 0.00 0.26 0.04 95 1000.2
20170529074014 62 202 2.0 3.0 0.01 0.26 0.04 96 1000.2
20170529073014 61 201 2.0 3.0 0.01 0.26 0.04 95 1000.2
20170529072014 61 190 2.0 3.0 0.01 0.26 0.04 97 1000.1
20170529071014 61 200 2.0 3.0 0.01 0.26 0.04 97 1000.3
20170529070014 61 175 2.0 4.0 0.01 0.26 0.04 97 1000.1
20170529065015 61 237 3.0 4.0 0.01 0.26 0.04 97 1000.1
20170529064015 60 181 3.0 6.0 0.01 0.25 0.02 99 1000.3
20170529063015 61 201 3.0 4.0 0.02 0.25 0.02 99 999.8
20170529062015 61 200 3.0 4.0 0.02 0.25 0.02 99 999.8
20170529061015 60 187 3.0 4.0 0.02 0.25 0.02 99 999.8
20170529060015 60 165 3.0 4.0 0.02 0.25 0.02 99 999.8
20170529055015 60 190 2.0 4.0 0.02 0.25 0.02 99 1000.0
20170529054015 60 260 2.0 4.0 0.01 0.24 0.01 99 999.6
20170529053016 60 181 4.0 5.0 0.00 0.22 0.00 99 1000.0
20170529052015 60 176 3.0 6.0 0.00 0.22 0.00 99 999.8
20170529051015 60 179 2.0 4.0 0.00 0.22 0.00 99 1000.0
20170529050015 60 147 1.0 4.0 0.00 0.22 0.00 99 1000.0
20170529045015 60 145 1.0 3.0 0.00 0.22 0.00 99 1000.1
20170529044015 60 138 1.0 2.0 0.00 0.22 0.00 99 999.7
20170529043015 60 205 2.0 4.0 0.00 0.22 0.00 99 999.8
20170529042015 60 191 3.0 4.0 0.00 0.22 0.00 99 999.7
20170529041015 60 213 1.0 2.0 0.00 0.22 0.00 99 999.8
20170529040016 60 154 1.0 2.0 0.00 0.22 0.00 99 999.9
20170529035015 59 90 0.0 2.0 0.00 0.22 0.00 100 1000.0
20170529034015 59 91 1.0 2.0 0.00 0.22 0.00 99 1000.0
20170529033015 60 181 0.0 2.0 0.00 0.22 0.00 100 1000.0
20170529032015 60 0 0.0 0.0 0.00 0.22 0.00 99 1000.1
20170529031015 60 211 0.0 2.0 0.00 0.22 0.00 100 1000.0
20170529030015 59 0 0.0 0.0 0.00 0.22 0.00 100 1000.0
20170529025015 59 0 0.0 0.0 0.00 0.22 0.00 97 1000.0
20170529024015 59 0 0.0 0.0 0.00 0.22 0.00 100 1000.2
20170529023015 59 0 0.0 0.0 0.00 0.22 0.00 97 1000.0
20170529022015 59 0 0.0 0.0 0.00 0.22 0.00 100 1000.0
20170529021015 59 0 0.0 0.0 0.00 0.22 0.00 97 1000.2
20170529020015 59 0 0.0 0.0 0.00 0.22 0.00 97 1000.4
20170529015015 59 0 0.0 0.0 0.00 0.22 0.00 96 1000.4
20170529014015 60 0 0.0 0.0 0.00 0.22 0.00 97 1000.1
20170529013015 60 181 0.0 1.0 0.00 0.22 0.00 97 1000.1
20170529012014 60 0 0.0 0.0 0.00 0.22 0.00 97 1000.3
20170529011014 60 0 0.0 0.0 0.00 0.22 0.00 97 1000.4
20170529010014 60 0 0.0 0.0 0.00 0.22 0.00 97 1000.4
20170529005014 60 0 0.0 0.0 0.00 0.22 0.00 96 1000.7
20170529004014 60 90 0.0 2.0 0.01 0.22 0.00 97 1000.7
20170529003014 60 90 0.0 1.0 0.02 0.22 0.00 96 1001.0
20170529002014 60 147 1.0 2.0 0.04 0.22 0.00 96 1001.3
20170529001014 60 175 1.0 4.0 0.06 0.22 0.00 96 1001.6
20170529000016 60 208 1.0 3.0 0.07 0.22 0.00 96 1001.8
20170528235013 60 185 0.0 2.0 0.09 0.22 0.22 95 1001.9
20170528234013 60 214 1.0 2.0 0.11 0.21 0.21 95 1002.0
20170528233013 60 195 0.0 2.0 0.12 0.20 0.20 94 1002.1
20170528232013 60 0 0.0 0.0 0.13 0.19 0.19 93 1002.0
20170528231013 60 0 0.0 0.0 0.13 0.17 0.17 92 1002.0
20170528230013 60 0 0.0 0.0 0.12 0.15 0.15 92 1002.0
20170528225009 60 0 0.0 0.0 0.11 0.13 0.13 91 1001.7
20170528224009 60 45 0.0 1.0 0.08 0.11 0.11 91 1001.7
20170528223009 61 1 0.0 1.0 0.06 0.08 0.08 89 1001.8
20170528222009 61 0 0.0 0.0 0.04 0.06 0.06 86 1002.2
20170528221009 61 0 0.0 0.0 0.01 0.04 0.04 85 1002.4
20170528220009 61 0 0.0 0.0 0.01 0.04 0.04 83 1002.4
20170528215009 62 0 0.0 0.0 0.00 0.02 0.02 82 1002.8
20170528214009 62 0 0.0 0.0 0.00 0.02 0.02 82 1003.0
20170528213009 62 0 0.0 0.0 0.00 0.02 0.02 82 1002.7
20170528212009 62 314 0.0 1.0 0.00 0.02 0.02 82 1002.6
20170528211009 62 0 0.0 0.0 0.00 0.02 0.02 82 1002.8
20170528210009 62 0 0.0 0.0 0.00 0.02 0.02 82 1003.0
20170528205009 62 0 0.0 0.0 0.00 0.02 0.02 82 1002.9
20170528204009 62 45 0.0 1.0 0.00 0.02 0.02 81 1002.9
20170528203009 62 45 0.0 1.0 0.00 0.02 0.02 80 1002.8
20170528202009 62 36 0.0 2.0 0.00 0.02 0.02 79 1002.7
20170528201009 63 13 1.0 3.0 0.00 0.02 0.02 78 1002.4
20170528200009 63 41 0.0 4.0 0.00 0.02 0.02 78 1002.3
20170528195009 64 33 2.0 4.0 0.00 0.02 0.02 74 1002.3
20170528194009 64 29 1.0 3.0 0.00 0.02 0.02 73 1002.7
20170528193009 65 40 2.0 3.0 0.00 0.02 0.02 72 1002.9
20170528192009 65 0 0.0 0.0 0.00 0.02 0.02 72 1003.4
20170528191009 65 23 0.0 2.0 0.00 0.02 0.02 71 1003.4